DECAYED

COSMOS 2251 DEB, 33784 (Decayed)

Orbit data source: Space-Track

COSMOS 2251 DEB, 33784 was space debris in LEO originally from a launch on Wed, 16 Jun 1993 UTC launched from the Plesetsk Missile And Space Complex (PKMTR). The debris from Iridium 33, an American commercial communications satellite, has been tracked extensively since its accidental collision with the defunct Russian satellite Cosmos 2251 in 2009. This event, occurring at high speed in low Earth orbit (LEO), generated thousands of pieces of space debris, significantly increasing the risk of further collisions. The Iridium 33 debris cloud has impacted space traffic management and orbital debris mitigation strategies, making it a subject of ongoing study in space situational awareness.

Not visible in the next 10 days
Identifier
33784, 1993-036Z
Orbit
Decayed
Country
Flag of CISCIS
Related business
Manufacturer
Unknown
Mission
Decayed spacecraft
Bus & Motor
Unknown
Mass
Unknown
Launch date (UTC)
1993-06-16 (33 years ago)
Launch vehicle
Unknown
Launch site
Plesetsk Missile And Space Complex (PKMTR)
Object type
Payload
Rocket body
Debris
Shape & HBR
Unknown shape, 0.2 m
Radar Cross Section
Medium (>0.1 m² and <1 m²)

Expand to show TLE details & history
Last TLE update: 10 months ago

TLE from 10 months ago
0 COSMOS 2251 DEB
1 33784U 93036Z   25209.67504256  .08241127  18031-5  50407-2 0  9990
2 33784  74.1076  78.6501 0015211 218.0967 141.9207 16.17721079880328
Epoch: 2025-07-28T16:12Z
TLE epoch observation values (Epoch: 2025-07-28T16:12:03.677Z)
Latitude
-0.00007°
Longitude
-110.94481°
Altitude
236.493 km
Speed
7.76 km/s
True Right ascension
05h 14m 36s
True Declination
0° 00' 00"
Sunlit
Object was in daylight at epoch
Visualization orbit readout
Latitude
Unknown
Longitude
Unknown
Altitude
Unknown
Speed
Unknown
Apparent Right ascension
Unknown
Apparent Declination
Unknown
Sunlit
N/A
Visualization observer readout
Local Sidereal Time
21:43:01
Azimuth
Unknown
Elevation
Unknown
Doppler factor
Unknown
Orbital elements
Apogee altitude
233.208 km
Perigee altitude
213.126 km
Semi-major axis
6,601.304 km
Eccentricity
0.00152
Inclination
74.1076°
RAAN
78.6501°
Arg. of periapsis
218.0967°
True anomaly
142.02804°
Mean anomaly
141.9207°
Eccentric anomaly
141.97439°
Mean motion
4.04668 °/min
Orbital period
88.96 mins
BSTAR
0.0050407
Loading maneuver chart data...
Computing Atmospheric mass density...
Loading historical data...
Loading historical data...
Loading historical data...
Loading historical data...
Loading historical data...
Loading historical data...
Loading historical data...

Documentation

Showing up to 5 results
|